Погода в Степногорске

Казахстан     52°20′47″N   71°52′47″E
темп.,
°C
ветер,
м/с
пор.,
м/с
влажн.,
%
обл.,
%
осадки,
мм/ч
давл.,
гПа
погр.,
м
5 декабря, вс
вс500:00−1юз51094100 0.0 1029273
03:00−1юз51091100 0.0 1028256
06:00−2юз5109172 0.0 1027180
09:00−7юз598836 0.0 1027109
12:00−4юз4787100 0.0 1026123
15:00−2юз3688100 0.0 1023119
18:00−3юз468998 0.0 102397
21:00−5юз369099 0.0 102267
6 декабря, пн
пн600:00−6юз4786100 0.0 102187
03:00−6юз488288 0.0 102197
06:00−8зюз478399 0.0 102176
09:00−6зюз4782100 0.0 1020107
12:00−4юз4881100 0.0 1019146
15:00−2зюз61190100 0.1 1018368
18:00−1зюз61394100 0.4 1018447
21:00−4зюз71480100 0.1 1018343
7 декабря, вт
вт700:00−6з7138894 0.1 1020328
03:00−7з5109494 0.0 1022214
06:00−10зсз489625 0.0 1025113
09:00−12сз369871 0.0 102986
12:00−12сз36925 0.0 1032239
15:00−12ссз22915 0.0 103359
18:00−17сз11955 0.0 10369
21:00−18ю009828 0.0 10379
8 декабря, ср
ср800:00−18ююз119792 0.0 10379
03:00−19з11985 0.0 10389
06:00−19з229839 0.0 103810
09:00−20з22975 0.0 103917
12:00−15зсз24865 0.0 104096
15:00−14зсз23885 0.0 104048
18:00−19з22965 0.0 104219
21:00−20з33975 0.0 104423
9 декабря, чт
чт900:00−20з339436 0.0 104426
03:00−19зюз338978 0.0 104542
06:00−18зюз458699 0.0 104575
09:00−15юз4783100 0.0 1045130
12:00−12юз5880100 0.0 1045185
15:00−11юз498181 0.0 1044203
18:00−11юз597998 0.0 1044186
21:00−13юз5107774 0.0 1043149